Location: Berlín
(3.7375°N, 75.6789°W)
Time: 05:59:43
(UTC+00:00)

Daily predictions for brighter satellites

Satellite Brightness Start Highest point End
(mag) Time Altitude Azimuth Time Altitude Azimuth Time Altitude Azimuth
ATLAS 5 CENTAUR R/B 3.2 00:00:26 10° SSE 00:01:53 23° SE 00:01:53 23° SE
Geosat FO 3.9 00:00:40 10° SSE 00:03:43 88° ENE 00:06:40 10° NNW
CZ-2D R/B 4.2 00:01:02 10° S 00:04:51 52° WSW 00:08:47 10° NNW
SJ 16-02 4.3 00:04:23 10° WSW 00:06:07 12° WNW 00:07:52 10° NW
Spot 4 Rocket 4.1 00:01:34 10° S 00:06:40 80° WSW 00:11:45 10° NNW
GPS 2-12 Rocket1 3.4 00:08:59 10° NW 00:13:22 47° NNE 00:13:22 47° NNE
USA 215 3.3 00:08:40 10° SE 00:15:01 55° NE 00:21:21 10° NNW
Cosmos 968 Rocket 4.3 00:11:45 10° SSW 00:16:37 48° WNW 00:21:12 12° N
Cosmos 2228 4.3 00:12:47 10° SSE 00:14:50 26° SSE 00:14:50 26° SSE
ARIANE 5 DEB (SYLDA) 3.7 00:15:17 10° W 00:18:11 78° S 00:19:21 51° E
Cosmos 1741 Rocket 4.1 00:13:17 10° SSW 00:18:28 72° WNW 00:21:28 26° N
ARIANE 5 R/B 3.1 00:16:03 10° WSW 00:19:27 45° S 00:25:10 23° ESE
Nadezhda 4 Rocket 3.9 00:14:39 10° N 00:20:52 89° W 00:27:02 10° S
Ariane H10+ 3.3 00:24:58 10° WSW 00:25:33 16° SW 00:25:33 16° SW
Cosmos 1536 Rocket 4.0 00:26:51 20° NNW 00:29:44 59° W 00:34:01 10° S
NOAA 6 4.2 00:26:43 10° S 00:31:52 69° WSW 00:36:58 10° NNW
Cosmos 2195 Rocket 4.3 00:32:09 37° N 00:34:47 75° E 00:41:06 10° S
ATLAS 5 CENTAUR R/B 2.3 00:29:00 10° NNW 00:34:56 72° ENE 00:41:50 10° SSE
Ariane H10-3 4.0 00:22:43 10° W 00:48:50 62° S 00:50:39 47° SE
Cosmos 540 Rocket 4.4 00:50:35 10° NNW 00:55:23 43° WSW 01:00:11 10° S
USA 234 3.3 01:06:26 73° WSW 01:06:26 73° WSW 01:12:18 10° SW
CENTAUR R/B 4.4 01:22:03 10° SW 01:22:57 15° SW 01:22:57 15° SW
CZ-3 R/B 4.3 06:29:39 10° WSW 07:34:44 52° N 07:44:11 10° NE
CZ-3 Stage 3 4.2 08:11:36 46° N 08:11:36 46° N 08:29:56 10° NE
Cosmos 2123 Rocket 4.4 08:20:21 10° S 08:26:00 57° ESE 08:26:00 57° ESE
Atlas Centaur 2 3.5 08:29:18 36° SSW 08:32:19 52° SSE 08:39:38 10° ENE
CZ-2C R/B 4.0 08:35:06 29° SSE 08:35:06 29° SSE 08:37:35 10° S
ARIANE 5 R/B 3.1 08:37:06 37° E 08:37:06 37° E 08:39:07 10° E
ARIANE 5 R/B 4.2 08:46:31 32° S 08:46:38 32° S 08:52:18 10° ESE
Cosmos 1153 Rocket 4.4 08:46:42 66° NNE 08:47:40 84° E 08:54:02 10° S
ATLAS 3B R/B 2.6 08:50:23 60° SW 08:51:40 73° WNW 08:59:02 10° NNE
Meteor 2-16 Rocket 4.3 08:46:45 10° S 08:52:50 89° W 08:54:27 52° N
Centaur D-1A AC-31 3.9 08:52:58 16° SSW 08:55:51 20° S 09:06:50 10° SE
DELTA 2 R/B (1) 3.5 08:57:47 75° SSW 08:57:47 75° SSW 09:03:10 10° SE
SEDSat Delta rocket 3.6 08:59:13 51° ESE 08:59:13 51° ESE 09:02:42 10° ENE
Meteor 1-28 Rocket 4.3 09:05:20 10° SE 09:08:23 35° ENE 09:08:36 34° ENE
EPKM 3.6 08:56:04 10° WSW 09:12:55 73° NNW 09:16:52 10° NE
SL-8 R/B 4.2 09:09:30 17° SSW 09:13:05 59° SE 09:17:45 10° NE
Ariane H10-3 3.3 09:07:33 30° W 09:16:22 88° S 09:21:03 10° E
ASTEX 1 3.5 09:15:41 10° S 09:20:28 51° W 09:20:42 51° W
SL-16 R/B 2.4 09:21:10 10° S 09:27:19 69° WSW 09:32:31 15° NNW
Cosmos 1908 Rocket 3.6 09:24:35 14° N 09:28:15 76° E 09:32:34 10° S
Cosmos 1459 Rocket 3.9 09:23:13 10° N 09:29:27 77° W 09:35:37 10° S
Cosmos 2100 Rocket 3.9 09:24:04 12° NNW 09:29:47 67° W 09:36:01 10° S
BlueWalker 3 4.0 09:30:01 12° N 09:32:22 21° NE 09:35:09 10° ESE
SL-16 R/B 2.6 09:28:04 10° SW 09:33:14 37° WNW 09:38:24 10° N
ATLAS 2A CENTAUR R/B 3.5 09:35:17 16° NNE 09:35:48 17° NE 09:38:12 10° E
ARIANE 5 R/B 2.3 09:37:03 24° SSW 09:37:31 26° S 09:40:21 10° ESE
Cosmos 1269 Rocket 4.0 09:34:37 23° NNW 09:37:53 60° WSW 09:43:05 10° S
Cosmos 1140 Rocket 3.3 09:35:43 19° NNW 09:39:24 69° WSW 09:44:29 10° S
Cosmos 1447 Rocket 4.4 09:33:35 10° S 09:39:46 87° W 09:46:00 10° N
NOAA 12 4.5 09:34:36 10° NNE 09:39:50 66° ESE 09:45:04 10° S
Timation 2 Rocket 4.1 09:34:40 10° N 09:40:52 71° ENE 09:46:51 10° SSE
Cosmos 1864 Rocket 4.5 09:36:50 10° N 09:43:11 82° W 09:49:32 10° S
Cosmos 1452 Rocket 4.0 09:38:51 10° S 09:44:01 63° ESE 09:49:10 10° NNE
Ariane H10 2.1 09:43:06 36° WNW 09:44:11 70° N 09:46:20 10° E
BREEZE-M DEB (TANK) 3.9 09:42:59 10° SW 09:50:49 37° WNW 09:53:47 10° N
Cosmos 2346 Rocket 4.4 09:44:51 10° SSW 09:50:58 62° W 09:57:01 10° N
Cosmos 1725 Rocket 4.0 09:51:17 10° N 09:57:29 67° W 10:03:41 10° S
Cosmos 1331 Rocket 4.0 09:52:31 10° SSW 09:57:44 63° WNW 10:02:55 10° N
Cosmos 1939 Rocket 4.0 09:58:21 20° W 09:58:21 20° W 10:00:53 10° SW
ARIANE 5 R/B 3.2 09:43:51 12° W 09:58:34 69° S 10:01:54 10° E
Cosmos 2233 Rocket 4.2 09:53:17 10° N 09:59:29 77° E 10:05:39 10° S
UNK 3.8 09:59:08 10° S 10:03:33 56° WSW 10:07:59 10° NNW
Hubble Space Telescope 2.6 10:14:15 10° NW 10:15:49 12° NNW 10:17:27 10° N
Atlas Centaur 2 3.1 10:13:43 10° WSW 10:21:23 50° NNW 10:27:58 10° NE
GPS 2-17 Rocket1 3.7 10:17:52 10° NW 10:21:54 41° NNE 10:25:53 10° E
Cosmos 1025 Rocket 3.3 10:18:27 10° S 10:22:45 74° E 10:27:04 10° N
Cosmos 1943 3.6 10:18:42 10° SW 10:23:56 41° WNW 10:29:10 10° N
Delta 168 3.9 10:17:12 10° WNW 10:24:51 79° NNE 10:29:54 10° ESE
USA 276 2.4 10:23:00 10° NW 10:25:41 43° SW 10:28:31 10° SSE
Palapa 6 Rocket 4.1 10:18:50 10° WSW 10:26:09 77° NNW 10:32:19 10° ENE
Cosmos 1603 3.9 10:21:27 10° SSW 10:27:10 81° ESE 10:32:54 10° NNE
Ariane H10 3.9 10:23:27 10° WSW 10:27:48 71° SSE 10:52:22 10° E
Cosmos 1674 Rocket 3.6 10:24:06 10° SSW 10:28:25 57° W 10:32:45 10° N
SJ 16-02 2.8 10:26:17 10° N 10:30:16 40° ENE 10:34:15 10° SSE
